Weather History for KSSI - February, 2012

Change the Weather History Date:

Sunday, February 19, 2012

  Actual Average Record
Temperature  
Mean Temperature 71 °F 55 °F  
Max Temperature 82 °F 64 °F 82 °F (1956)
Min Temperature 59 °F 47 °F 23 °F (1958)
Degree Days  
Heating Degree Days 0 10  
Month to date heating degree days 138 218  
Since 1 July heating degree days 768 1169  
Cooling Degree Days 6 0  
Month to date cooling degree days 14 0  
Year to date cooling degree days 15 3  
Growing Degree Days 21 (Base 50)    
Moisture  
Dew Point 59 °F    
Average Humidity 66    
Maximum Humidity 97    
Minimum Humidity 34    
Precipitation  
Precipitation 1.18 in 0.14 in 2.70 in (1988)
Month to date precipitation 1.38 2.30  
Year to date precipitation 1.83 5.52  
Snow  
Snow 0.00 in - 0.00 in ()
Month to date snowfall 0.0  
Since 1 July snowfall 0.0  
Snow Depth 0.00 in    
Sea Level Pressure  
Sea Level Pressure 29.78 in    
Wind  
Wind Speed 10 mph (SSW)    
Max Wind Speed 28 mph    
Max Gust Speed 36 mph    
Visibility 5 miles    
Events Rain , Thunderstorm    
T = Trace of Precipitation, MM = Missing Value Source: NWS Daily Summary

Daily Weather History Graph

Daily Weather History Graph

Search for Another Location

Airport or City:

Trip Planner

Search our weather history database for the weather conditions in past years. The results will help you decide how hot, cold, wet, or windy it might be!

Date:

Astronomy

Feb. 19, 2012 Rise Set
Actual Time 7:03 AM EST 6:15 PM EST
Civil Twilight 6:38 AM EST 6:40 PM EST
Nautical Twilight 6:10 AM EST 7:08 PM EST
Astronomical Twilight 5:42 AM EST 7:36 PM EST
Moon 5:17 AM EST (2/19) 4:20 PM EST (2/19)
Length of Visible Light 12h 01m
Length of Day
11h 12m
Waning Crescent, 5% of the Moon is Illuminated
Feb 19
Waning Crescent
Feb 21
New
Feb 29
First Quarter
Mar 8
Full
Mar 14
Last Quarter

Hourly Weather History & Observations

Time (EST) Temp. Heat Index Dew Point Humidity Pressure Visibility Wind Dir Wind Speed Gust Speed Precip Events Conditions
12:53 AM 60.1 °F - 57.9 °F 93% 29.85 in 6.0 mi Calm Calm - N/A   Overcast
1:39 AM 62.6 °F - 60.8 °F 94% 29.86 in 7.0 mi SW 5.8 mph - N/A   Overcast
1:53 AM 62.1 °F - 60.1 °F 93% 29.86 in 7.0 mi WNW 5.8 mph - N/A   Overcast
2:04 AM 60.8 °F - 59.0 °F 94% 29.86 in 6.0 mi Calm Calm - N/A   Overcast
2:21 AM 62.6 °F - 60.8 °F 94% 29.86 in 6.0 mi NW 3.5 mph - N/A   Overcast
2:53 AM 62.1 °F - 60.1 °F 93% 29.84 in 6.0 mi North 4.6 mph - N/A   Overcast
3:02 AM 62.6 °F - 60.8 °F 94% 29.84 in 6.0 mi North 4.6 mph - N/A   Overcast
3:27 AM 62.6 °F - 60.8 °F 94% 29.84 in 4.0 mi NNW 6.9 mph - 0.02 in Rain Light Rain
3:32 AM 62.6 °F - 60.8 °F 94% 29.84 in 1.5 mi North 8.1 mph - 0.19 in Rain Heavy Rain
3:50 AM 60.8 °F - 60.8 °F 100% 29.83 in 3.0 mi North 4.6 mph - 0.30 in Rain Light Rain
3:53 AM 61.0 °F - 60.1 °F 97% 29.83 in 5.0 mi North 5.8 mph - 0.30 in Rain Light Rain
4:01 AM 60.8 °F - 60.8 °F 100% 29.82 in 8.0 mi Calm Calm - 0.00 in Rain Light Rain
4:53 AM 60.1 °F - 57.9 °F 93% 29.81 in 4.0 mi ESE 5.8 mph - 0.04 in Rain Light Rain
5:53 AM 60.1 °F - 59.0 °F 96% 29.80 in 4.0 mi East 6.9 mph - 0.06 in Rain Light Rain
6:07 AM 60.8 °F - 59.0 °F 94% 29.81 in 2.0 mi SE 5.8 mph - 0.12 in Rain Heavy Rain
6:16 AM 60.8 °F - 59.0 °F 94% 29.82 in 2.0 mi East 3.5 mph - 0.19 in Rain , Thunderstorm Thunderstorms and Rain
6:25 AM 60.8 °F - 57.2 °F 88% 29.79 in 1.8 mi ESE 10.4 mph - 0.27 in Rain , Thunderstorm Heavy Rain
6:41 AM 60.8 °F - 60.8 °F 100% 29.78 in 1.2 mi SE 10.4 mph 19.6 mph 0.51 in Rain , Thunderstorm Heavy Thunderstorms and Rain
6:44 AM 60.8 °F - 60.8 °F 100% 29.78 in 1.5 mi SE 9.2 mph - 0.52 in Rain Heavy Rain
6:53 AM 62.6 °F - 60.8 °F 94% 29.78 in 1.8 mi SE 12.7 mph - N/A Rain Heavy Rain
7:03 AM 62.6 °F - 60.8 °F 94% 29.76 in 2.5 mi SE 13.8 mph 21.9 mph 0.03 in Rain Rain
7:15 AM 62.6 °F - 60.8 °F 94% 29.76 in 5.0 mi SE 11.5 mph - 0.04 in Rain Light Rain
7:33 AM 62.6 °F - 60.8 °F 94% 29.76 in 4.0 mi SE 12.7 mph - 0.04 in Rain Light Rain
7:50 AM 62.6 °F - 60.8 °F 94% 29.77 in 1.8 mi Variable 3.5 mph - 0.13 in Rain , Thunderstorm Light Thunderstorms and Rain
7:53 AM 62.1 °F - 62.1 °F 100% 29.77 in 1.5 mi SSE 5.8 mph - 0.15 in Rain , Thunderstorm Heavy Thunderstorms and Rain
8:06 AM 62.6 °F - 60.8 °F 94% 29.77 in 2.5 mi SE 8.1 mph - 0.00 in Rain , Thunderstorm Light Rain
8:13 AM 62.6 °F - 60.8 °F 94% 29.77 in 2.5 mi SSE 11.5 mph - 0.00 in   Overcast
8:23 AM 62.6 °F - 60.8 °F 94% 29.77 in 3.0 mi South 8.1 mph 16.1 mph 0.00 in Rain Light Rain
8:50 AM 62.6 °F - 60.8 °F 94% 29.76 in 3.0 mi South 9.2 mph - 0.00 in Rain Light Rain
8:53 AM 62.1 °F - 61.0 °F 96% 29.76 in 3.0 mi South 6.9 mph - 0.00 in Rain Light Rain
9:10 AM 62.6 °F - 60.8 °F 94% 29.76 in 3.0 mi South 9.2 mph - 0.00 in   Overcast
9:16 AM 62.6 °F - 60.8 °F 94% 29.76 in 2.5 mi South 9.2 mph - 0.00 in   Overcast
9:53 AM 62.1 °F - 61.0 °F 96% 29.75 in 3.0 mi South 6.9 mph - 0.00 in   Overcast
10:31 AM 62.6 °F - 60.8 °F 94% 29.73 in 3.0 mi South 11.5 mph 18.4 mph 0.02 in Rain Light Rain
10:53 AM 64.0 °F - 63.0 °F 96% 29.73 in 4.0 mi South 8.1 mph - 0.03 in   Overcast
11:53 AM 70.0 °F - 66.0 °F 87% 29.71 in 8.0 mi Variable 4.6 mph - N/A   Overcast
12:27 PM 73.4 °F - 66.2 °F 78% 29.69 in 10.0 mi SW 10.4 mph - N/A   Scattered Clouds
12:53 PM 79.0 °F - 66.0 °F 64% 29.66 in 10.0 mi SW 13.8 mph 23.0 mph N/A   Clear
1:53 PM 80.1 °F 80.7 °F 59.0 °F 48% 29.63 in 10.0 mi WSW 21.9 mph 32.2 mph N/A   Mostly Cloudy
2:53 PM 82.0 °F - 51.1 °F 34% 29.61 in 10.0 mi WSW 20.7 mph 34.5 mph N/A   Clear
3:53 PM 81.0 °F 80.4 °F 53.1 °F 38% 29.62 in 10.0 mi West 17.3 mph 25.3 mph N/A   Mostly Cloudy
4:53 PM 78.1 °F - 53.1 °F 42% 29.63 in 10.0 mi West 15.0 mph 23.0 mph N/A   Partly Cloudy
5:53 PM 73.0 °F - 57.0 °F 57% 29.68 in 10.0 mi WNW 8.1 mph 18.4 mph N/A   Scattered Clouds
6:53 PM 69.1 °F - 55.0 °F 61% 29.73 in 10.0 mi WNW 12.7 mph 19.6 mph N/A   Clear
7:53 PM 66.9 °F - 53.1 °F 61% 29.76 in 10.0 mi West 10.4 mph 20.7 mph N/A   Partly Cloudy
8:53 PM 64.9 °F - 52.0 °F 63% 29.80 in 10.0 mi WNW 10.4 mph - N/A   Clear
9:53 PM 63.0 °F - 48.0 °F 58% 29.84 in 10.0 mi WNW 13.8 mph 29.9 mph N/A   Mostly Cloudy
10:53 PM 60.1 °F - 48.0 °F 64% 29.87 in 10.0 mi WNW 13.8 mph 23.0 mph N/A   Clear
11:53 PM 60.1 °F - 48.9 °F 67% 29.88 in 10.0 mi WNW 9.2 mph 23.0 mph N/A   Mostly Cloudy